SCP
-0 -0 -0 -0 0 0 0 -0 0 0 0 0 -0 -0 -1 -0 -0 -0 -0 -0 -0 -0 -0 -0 0 1 1 1 0 0 1 1 1 1 0 1 1 2 1 2 0 2 2 1
-0 0 -0 0 0 0 0 -0 0 0 0 0 0 0 -0 -0 -0 -0 -0 -0 0 0 -0 -0 -0 0 0 -0 1 1 1 1 1 1 1 2 1 0 1 1 1 1 0 0
-0 -0 0 0 0 0 -0 -0 0 0 0 0 0 0 0 0 -0 0 0 -0 -0 -0 -0 -0 -0 -0 -0 0 0 1 1 1 1 1 1 1 1 1 1 1 0 -0 0 0
-0 0 -0 0 0 0 -0 0 0 0 0 0 0 0 0 0 -0 0 0 0 -0 -0 -0 -0 -0 -0 -0 -0 0 1 1 0 0 0 0 0 0 0 0 0 -0 -0 0 -0
-0 0 -0 -0 0 0 0 0 0 0 0 0 0 0 1 0 -0 -0 -0 -0 0 -0 -0 -0 -0 -1 -0 0 0 0 0 0 1 0 0 -0 -0 -0 -0 -1 -0 -0 -0 -0
-0 -0 -0 -0 -0 0 0 0 0 -0 0 0 0 0 1 0 -0 -0 -0 -0 -0 -0 -0 -0 -0 -0 -0 0 0 -0 -0 -0 -0 -0 -1 -1 -1 -1 -0 -0 -0 -0 -0 0
-0 -0 -0 -0 0 0 -0 -0 0 0 0 0 0 0 1 0 -0 0 -0 -0 -0 -0 -0 -0 -0 -0 -0 0 -0 -0 -0 -0 -0 -0 -1 -0 -0 -0 -0 -0 -0 -0 -0 0
0 0 -0 0 0 0 0 0 0 0 0 0 0 0 1 1 -0 -0 -0 -0 -0 0 -0 -0 -0 -0 -0 -0 -0 -0 -0 -0 -0 -0 -0 -0 -0 -0 -0 -0 -0 -0 0 0
0 0 0 0 0 0 0 0 0 0 1 0 0 1 1 1 0 0 -0 0 0 0 0 -0 -0 -0 -0 -0 -0 -0 -0 -0 -0 -0 -0 -0 0 0 0 0 -0 -0 -0 0
0 0 -0 0 0 0 0 0 0 0 -0 -0 0 1 1 1 0 1 0 0 0 0 0 0 0 -0 -0 -0 -0 -0 -0 -0 -0 -0 0 0 0 0 -0 -0 0 0 0 0
1 1 0 -0 0 0 0 0 0 0 -0 0 0 0 0 0 0 0 0 0 0 0 1 0 1 0 0 0 -0 -0 -0 -0 -0 0 0 0 -0 0 -0 -0 0 0 0 0
0 -0 0 0 0 0 0 0 0 -0 0 0 0 -1 0 1 1 1 0 1 1 1 0 1 1 0 0 0 0 0 0 -0 0 -0 0 0 -0 0 -0 -0 -0 -0 0 0
0 -0 -0 0 0 0 0 0 0 0 0 0 0 0 1 2 1 1 1 0 0 -0 0 1 1 1 1 0 0 0 -0 -0 -0 0 -0 0 -0 -0 -0 0 0 0 0 0
0 0 0 0 0 0 0 0 0 0 0 0 0 1 0 -0 0 1 0 -0 -0 -0 -0 -0 -0 0 0 0 0 -0 0 -0 0 0 0 0 -0 -0 -0 -0 -0 -0 -0 0
0 0 0 -0 0 0 -0 0 0 -0 0 0 0 0 0 -0 -1 -0 -1 -0 -0 -0 -0 -0 -0 0 0 0 0 0 0 0 0 0 0 0 -0 -0 -0 -0 -0 -0 -0 0
0 0 0 0 0 0 0 0 -0 -0 0 1 1 0 1 -1 -1 -1 -0 -1 -0 0 -0 -0 -0 0 0 0 0 0 0 0 0 0 0 0 0 -0 0 -0 -0 -0 -0 -0
0 0 0 0 0 0 1 0 0 1 1 1 1 2 2 1 -0 -1 -0 -0 0 0 0 0 -0 0 -0 0 0 0 0 0 0 0 0 0 -0 -0 -0 0 0 0 0 -0
0 0 0 0 0 1 1 1 1 1 1 1 1 2 2 -0 -1 0 0 0 0 0 0 0 0 -0 -0 0 -0 -0 -0 0 0 0 0 0 0 -0 0 0 0 0 0 0
0 0 0 0 0 1 1 0 -0 0 3 3 3 3 2 1 1 1 1 0 1 1 0 0 -0 -0 -0 -0 -0 -0 0 0 0 0 0 0 0 0 0 0 0 0 0 0
0 0 0 0 0 0 0 -0 -1 0 3 3 3 4 3 3 2 1 1 1 1 1 0 0 -0 0 -0 -0 -0 0 0 0 0 0 -0 0 0 0 0 0 0 0 0 0
-0 0 0 0 0 2 0 -0 0 0 1 3 3 5 3 3 2 1 2 2 1 1 0 0 0 0 0 0 -0 0 -0 0 0 0 0 0 0 0 0 0 0 0 0 -0
-0 0 0 0 1 0 0 0 0 0 0 4 3 4 3 2 2 2 2 2 2 1 1 1 0 0 0 0 -0 -0 0 0 0 0 0 0 0 0 0 0 0 0 0 0
0 0 0 0 1 1 0 0 0 0 0 1 2 2 2 3 3 3 2 1 2 1 1 1 0 0 0 -0 0 0 0 0 0 0 0 0 0 0 0 0 0 0 0 0
0 0 0 0 0 0 0 0 0 0 0 1 1 2 2 2 2 2 2 1 1 1 1 0 0 0 0 0 0 0 0 0 0 0 0 0 0 0 0 0 -0 -0 0 0
0 0 0 -0 0 0 0 0 0 0 0 0 2 1 0 1 0 1 2 2 0 0 0 0 0 0 0 0 0 0 0 0 0 0 0 0 0 0 0 0 -0 0 0 0
0 0 0 0 0 0 0 0 0 0 0 0 0 -0 0 0 1 2 2 1 0 1 0 0 0 0 -0 0 0 0 0 0 0 0 0 0 0 0 0 0 0 0 0 0
0 0 0 0 0 0 0 -0 -0 -0 -0 0 0 -0 0 2 2 2 1 1 1 1 1 0 0 0 -0 0 0 1 1 1 0 0 0 0 0 0 0 0 0 1 0 0
Wind_Speed_500mb
39 39 38 38 5 24 28 46 13 15 11 33 54 56 34 25 21 20 20 18 29 36 61 56 42 24 29 34 23 17 28 25 22 30 20 30 32 36 33 31 18 20 22 16
36 37 37 27 15 37 7 75 10 18 13 10 29 42 36 33 30 28 26 27 24 24 29 37 34 27 17 19 22 24 25 24 29 38 31 35 27 25 18 20 23 17 9 3
32 42 29 34 35 26 56 40 15 19 11 24 29 28 39 39 33 33 32 40 39 36 41 33 32 27 32 27 19 16 19 21 34 37 37 30 25 22 19 12 1 7 8 4
30 36 36 35 39 37 40 24 26 25 25 19 20 37 42 44 41 38 37 37 39 38 35 36 29 25 22 23 19 22 22 24 24 23 28 28 23 12 18 17 16 8 5 4
27 30 38 16 20 15 14 22 33 11 18 18 31 22 44 49 48 44 41 41 39 39 32 27 24 26 19 17 21 20 19 24 26 26 27 24 26 25 24 22 15 10 10 9
32 39 39 23 35 28 25 15 34 63 19 19 35 19 24 56 54 47 44 43 37 34 31 28 26 24 29 27 24 20 23 27 29 32 34 29 28 25 20 16 13 14 17 14
32 33 34 30 13 29 12 14 16 26 76 26 28 26 61 69 64 55 51 46 38 37 33 31 29 28 27 27 26 26 29 30 29 29 31 30 29 27 23 22 19 19 18 19
36 33 39 30 28 24 33 37 38 51 35 6 18 26 76 77 73 64 54 49 41 40 37 33 33 34 31 34 33 34 33 29 34 33 29 32 30 22 18 18 21 20 19 16
30 32 27 53 52 46 43 35 22 21 13 37 39 65 82 75 71 64 60 52 43 41 41 39 35 40 38 37 37 36 38 35 40 32 28 28 24 25 22 18 15 14 16 16
18 31 30 68 19 44 21 28 19 5 46 24 40 64 61 70 69 64 58 54 48 45 47 42 42 40 35 41 42 41 42 39 33 27 30 32 25 16 13 8 17 13 12 12
30 8 28 81 59 53 13 9 29 30 125 25 35 49 57 60 64 63 58 53 53 54 51 49 42 35 38 42 42 40 40 36 30 22 24 19 8 24 10 13 13 11 16 16
24 42 31 49 54 84 47 32 49 64 23 24 53 67 64 63 63 63 62 54 59 58 53 50 46 43 38 44 42 41 37 31 31 22 19 19 18 17 12 7 8 20 16 15
45 74 68 80 79 97 74 45 43 31 26 35 33 51 55 61 65 66 60 61 64 58 56 54 49 46 41 44 43 39 34 29 33 28 25 28 23 16 10 12 7 5 12 26
83 79 74 41 83 117 72 22 15 32 35 46 51 49 59 67 69 71 63 64 61 54 58 55 51 48 43 43 41 43 34 26 25 24 19 25 15 13 16 17 14 8 8 14
66 62 62 69 91 106 35 24 29 69 35 43 58 62 72 74 76 71 66 63 59 55 55 56 47 43 43 39 41 44 38 25 25 22 10 14 15 19 16 26 20 13 5 9
71 66 63 71 82 65 84 76 75 95 52 51 54 59 78 83 81 73 72 65 66 63 57 53 48 43 45 42 34 39 38 24 34 25 23 18 9 14 12 17 13 16 20 14
56 56 57 67 71 79 79 87 53 55 62 66 62 54 85 90 86 80 75 69 63 59 58 53 46 40 46 43 34 32 29 25 34 25 14 21 27 20 16 18 17 14 18 22
66 66 59 61 78 80 77 82 66 42 68 67 65 55 92 94 93 90 81 70 64 58 58 52 45 39 46 41 47 38 34 33 28 28 15 15 21 24 19 13 9 5 11 18
49 55 58 70 80 83 70 74 76 67 69 67 66 60 98 97 95 89 80 76 70 65 59 53 46 37 45 35 43 30 29 33 25 30 21 18 20 15 8 14 14 13 12 20
50 50 53 66 71 77 72 76 50 70 50 68 60 56 85 85 89 86 79 83 78 68 59 51 54 39 43 37 41 26 24 26 31 24 24 19 18 17 19 19 16 8 11 9
45 47 50 68 76 52 47 19 36 28 52 64 66 68 85 82 87 90 73 71 67 60 57 54 52 43 39 38 44 30 26 25 24 28 24 27 22 19 26 20 19 15 10 16
40 39 48 53 47 35 12 52 48 63 27 38 57 66 77 80 85 81 75 72 69 64 64 55 53 46 40 34 43 30 22 24 24 19 21 18 16 14 14 15 10 11 14 15
39 36 39 41 48 30 36 65 66 37 17 24 51 65 74 77 84 73 69 59 68 66 65 55 50 50 43 34 35 28 33 25 24 21 18 17 17 17 17 17 17 16 14 16
30 32 34 33 23 20 50 45 53 39 36 44 58 64 69 65 65 67 65 68 65 72 52 55 54 50 43 36 26 19 27 25 20 19 19 14 9 11 14 13 14 15 16 17
38 26 27 34 28 44 38 44 43 37 26 50 57 68 65 66 69 66 65 74 59 65 56 53 55 45 44 36 36 27 25 21 17 18 14 14 13 12 9 9 12 13 15 17
41 33 42 27 38 60 55 19 30 38 42 48 67 58 61 61 60 66 77 65 61 56 50 60 50 49 45 38 34 36 30 30 30 24 18 10 6 6 9 16 9 13 16 17
60 60 38 22 50 42 92 79 74 66 57 50 54 56 58 64 76 71 59 66 74 51 60 55 51 48 38 33 21 25 31 26 22 23 21 5 4 4 6 7 6 12 14 19
Wind_Direction_500mb
290 298 307 310 68 19 310 308 315 98 353 153 170 231 151 150 140 137 141 160 136 143 171 189 175 218 221 222 238 219 233 218 226 219 214 211 215 199 216 231 243 270 306 310
281 286 280 277 209 116 36 276 190 183 216 356 148 226 145 153 152 150 154 157 175 180 176 192 187 194 208 195 211 214 227 207 216 199 208 212 211 216 228 248 248 288 309 18
270 285 291 284 262 253 192 236 268 272 264 120 152 154 154 157 166 164 170 159 166 168 169 185 200 218 212 201 216 212 236 211 210 208 205 199 204 213 231 229 145 67 67 319
293 280 256 275 331 330 301 263 250 254 149 167 189 159 163 164 169 172 171 162 165 173 183 189 185 186 207 196 206 209 201 197 213 199 200 210 214 182 140 126 120 156 200 82
253 259 277 227 289 234 350 325 325 236 262 270 162 164 152 162 167 172 171 168 172 169 168 169 178 180 180 184 209 202 191 195 187 188 170 159 147 140 141 148 160 172 125 107
258 262 254 283 274 51 354 289 349 342 246 243 167 193 158 161 163 171 171 169 169 155 158 164 168 168 178 173 171 168 184 168 153 149 150 152 150 146 138 128 123 133 119 93
242 254 251 253 76 78 5 270 295 329 299 229 229 204 164 160 161 169 171 168 153 155 160 163 162 167 169 165 169 174 158 153 153 148 147 147 138 124 127 146 157 129 103 95
280 250 256 263 184 170 212 203 206 252 319 231 256 214 153 157 159 165 167 157 159 159 157 158 163 157 163 160 159 154 155 155 144 137 137 137 130 139 140 150 136 117 105 74
245 278 270 247 257 269 276 212 203 238 236 262 220 153 152 155 156 160 155 156 166 160 156 159 160 164 167 162 161 152 144 143 132 144 153 137 134 119 119 123 116 111 109 155
225 263 288 302 261 293 248 160 124 212 233 217 160 143 149 152 156 150 156 164 166 160 157 154 166 175 171 159 153 152 143 138 149 161 146 134 120 122 151 174 179 145 160 172
318 312 295 283 289 254 216 162 100 218 248 195 34 125 157 160 155 155 161 170 162 162 162 158 167 173 164 158 154 155 151 151 149 156 155 167 181 126 148 170 176 152 176 193
311 2 333 290 297 323 272 208 192 221 186 190 158 156 164 161 156 159 164 168 164 169 167 166 168 165 170 162 165 162 149 150 158 168 170 173 184 202 218 132 191 220 209 211
310 338 327 292 295 312 298 253 260 190 207 197 180 166 164 155 156 162 166 168 172 174 172 167 169 175 174 169 170 162 161 171 179 185 187 183 193 197 181 185 149 172 213 220
294 304 312 292 291 299 308 248 310 221 206 201 192 175 166 159 161 165 168 167 176 179 174 171 177 179 177 173 174 167 170 193 195 215 226 179 193 221 220 222 185 141 151 184
293 282 278 284 289 288 319 275 244 268 200 198 184 182 171 164 165 166 166 164 177 180 173 171 175 180 178 175 183 178 177 193 197 199 199 175 194 222 234 209 191 152 103 195
279 287 289 289 300 306 302 190 180 228 193 195 190 184 170 167 163 163 163 169 171 176 171 172 175 183 176 180 184 180 182 195 207 217 205 188 204 221 231 162 176 244 246 219
273 268 278 285 292 304 304 313 313 183 186 186 193 180 163 162 160 163 167 172 176 177 175 176 176 179 167 188 185 178 196 208 205 228 211 199 199 206 230 213 212 236 223 206
281 274 278 285 289 297 301 306 296 237 184 181 182 173 160 161 164 167 171 172 174 181 178 180 176 179 175 193 174 188 189 194 222 220 238 213 218 212 209 206 230 241 214 213
298 288 286 288 294 302 297 306 299 321 179 174 172 170 167 166 166 169 170 174 174 176 177 180 178 182 175 193 185 189 200 182 188 203 213 221 239 230 232 205 213 218 235 242
296 288 282 291 289 302 302 302 305 330 177 168 171 167 163 165 168 171 173 176 177 176 175 175 178 183 180 191 184 190 193 195 177 188 202 202 214 219 245 243 249 256 281 330
292 288 276 275 298 293 295 260 181 325 319 165 173 169 164 166 167 168 174 170 173 175 175 178 176 178 182 193 186 189 191 202 197 186 200 206 217 234 226 229 234 227 239 270
296 278 258 271 286 295 227 166 149 242 291 174 173 165 163 164 166 172 173 172 171 176 177 178 173 177 181 191 184 192 197 180 196 197 190 195 207 217 242 248 263 246 261 272
284 246 243 259 292 252 163 170 194 252 277 203 175 170 165 166 167 168 169 175 175 178 175 174 168 178 182 176 174 202 172 169 178 186 197 208 223 232 242 242 244 248 255 267
248 228 238 261 259 294 201 196 206 250 249 182 173 167 164 168 174 176 169 175 177 176 175 168 179 178 175 164 180 186 172 168 178 168 159 160 188 224 232 242 251 257 267 269
210 229 233 241 230 199 207 204 197 221 256 172 169 167 171 172 174 173 175 173 175 167 175 176 178 178 172 178 183 183 183 181 173 170 189 202 205 204 224 238 256 266 272 274
223 202 222 221 192 173 140 163 186 211 234 172 179 180 173 173 174 165 170 170 166 167 170 169 176 177 173 183 186 187 188 191 188 196 211 242 271 286 266 266 270 252 274 281
203 218 231 245 190 179 177 188 194 190 215 173 187 176 163 153 150 154 168 162 159 166 169 169 172 171 181 191 201 191 154 180 180 130 138 137 199 204 224 339 293 299 281 283
Wind_Speed_850mb
39 39 38 38 5 24 28 46 13 15 11 33 54 56 34 25 21 20 20 18 29 36 61 56 42 24 29 34 23 17 28 25 22 30 20 30 32 36 33 31 18 20 22 16
36 37 37 27 15 37 7 75 10 18 13 10 29 42 36 33 30 28 26 27 24 24 29 37 34 27 17 19 22 24 25 24 29 38 31 35 27 25 18 20 23 17 9 3
32 42 29 34 35 26 56 40 15 19 11 24 29 28 39 39 33 33 32 40 39 36 41 33 32 27 32 27 19 16 19 21 34 37 37 30 25 22 19 12 1 7 8 4
30 36 36 35 39 37 40 24 26 25 25 19 20 37 42 44 41 38 37 37 39 38 35 36 29 25 22 23 19 22 22 24 24 23 28 28 23 12 18 17 16 8 5 4
27 30 38 16 20 15 14 22 33 11 18 18 31 22 44 49 48 44 41 41 39 39 32 27 24 26 19 17 21 20 19 24 26 26 27 24 26 25 24 22 15 10 10 9
32 39 39 23 35 28 25 15 34 63 19 19 35 19 24 56 54 47 44 43 37 34 31 28 26 24 29 27 24 20 23 27 29 32 34 29 28 25 20 16 13 14 17 14
32 33 34 30 13 29 12 14 16 26 76 26 28 26 61 69 64 55 51 46 38 37 33 31 29 28 27 27 26 26 29 30 29 29 31 30 29 27 23 22 19 19 18 19
36 33 39 30 28 24 33 37 38 51 35 6 18 26 76 77 73 64 54 49 41 40 37 33 33 34 31 34 33 34 33 29 34 33 29 32 30 22 18 18 21 20 19 16
30 32 27 53 52 46 43 35 22 21 13 37 39 65 82 75 71 64 60 52 43 41 41 39 35 40 38 37 37 36 38 35 40 32 28 28 24 25 22 18 15 14 16 16
18 31 30 68 19 44 21 28 19 5 46 24 40 64 61 70 69 64 58 54 48 45 47 42 42 40 35 41 42 41 42 39 33 27 30 32 25 16 13 8 17 13 12 12
30 8 28 81 59 53 13 9 29 30 125 25 35 49 57 60 64 63 58 53 53 54 51 49 42 35 38 42 42 40 40 36 30 22 24 19 8 24 10 13 13 11 16 16
24 42 31 49 54 84 47 32 49 64 23 24 53 67 64 63 63 63 62 54 59 58 53 50 46 43 38 44 42 41 37 31 31 22 19 19 18 17 12 7 8 20 16 15
45 74 68 80 79 97 74 45 43 31 26 35 33 51 55 61 65 66 60 61 64 58 56 54 49 46 41 44 43 39 34 29 33 28 25 28 23 16 10 12 7 5 12 26
83 79 74 41 83 117 72 22 15 32 35 46 51 49 59 67 69 71 63 64 61 54 58 55 51 48 43 43 41 43 34 26 25 24 19 25 15 13 16 17 14 8 8 14
66 62 62 69 91 106 35 24 29 69 35 43 58 62 72 74 76 71 66 63 59 55 55 56 47 43 43 39 41 44 38 25 25 22 10 14 15 19 16 26 20 13 5 9
71 66 63 71 82 65 84 76 75 95 52 51 54 59 78 83 81 73 72 65 66 63 57 53 48 43 45 42 34 39 38 24 34 25 23 18 9 14 12 17 13 16 20 14
56 56 57 67 71 79 79 87 53 55 62 66 62 54 85 90 86 80 75 69 63 59 58 53 46 40 46 43 34 32 29 25 34 25 14 21 27 20 16 18 17 14 18 22
66 66 59 61 78 80 77 82 66 42 68 67 65 55 92 94 93 90 81 70 64 58 58 52 45 39 46 41 47 38 34 33 28 28 15 15 21 24 19 13 9 5 11 18
49 55 58 70 80 83 70 74 76 67 69 67 66 60 98 97 95 89 80 76 70 65 59 53 46 37 45 35 43 30 29 33 25 30 21 18 20 15 8 14 14 13 12 20
50 50 53 66 71 77 72 76 50 70 50 68 60 56 85 85 89 86 79 83 78 68 59 51 54 39 43 37 41 26 24 26 31 24 24 19 18 17 19 19 16 8 11 9
45 47 50 68 76 52 47 19 36 28 52 64 66 68 85 82 87 90 73 71 67 60 57 54 52 43 39 38 44 30 26 25 24 28 24 27 22 19 26 20 19 15 10 16
40 39 48 53 47 35 12 52 48 63 27 38 57 66 77 80 85 81 75 72 69 64 64 55 53 46 40 34 43 30 22 24 24 19 21 18 16 14 14 15 10 11 14 15
39 36 39 41 48 30 36 65 66 37 17 24 51 65 74 77 84 73 69 59 68 66 65 55 50 50 43 34 35 28 33 25 24 21 18 17 17 17 17 17 17 16 14 16
30 32 34 33 23 20 50 45 53 39 36 44 58 64 69 65 65 67 65 68 65 72 52 55 54 50 43 36 26 19 27 25 20 19 19 14 9 11 14 13 14 15 16 17
38 26 27 34 28 44 38 44 43 37 26 50 57 68 65 66 69 66 65 74 59 65 56 53 55 45 44 36 36 27 25 21 17 18 14 14 13 12 9 9 12 13 15 17
41 33 42 27 38 60 55 19 30 38 42 48 67 58 61 61 60 66 77 65 61 56 50 60 50 49 45 38 34 36 30 30 30 24 18 10 6 6 9 16 9 13 16 17
60 60 38 22 50 42 92 79 74 66 57 50 54 56 58 64 76 71 59 66 74 51 60 55 51 48 38 33 21 25 31 26 22 23 21 5 4 4 6 7 6 12 14 19
Wind_Direction_850mb
290 298 307 310 68 19 310 308 315 98 353 153 170 231 151 150 140 137 141 160 136 143 171 189 175 218 221 222 238 219 233 218 226 219 214 211 215 199 216 231 243 270 306 310
281 286 280 277 209 116 36 276 190 183 216 356 148 226 145 153 152 150 154 157 175 180 176 192 187 194 208 195 211 214 227 207 216 199 208 212 211 216 228 248 248 288 309 18
270 285 291 284 262 253 192 236 268 272 264 120 152 154 154 157 166 164 170 159 166 168 169 185 200 218 212 201 216 212 236 211 210 208 205 199 204 213 231 229 145 67 67 319
293 280 256 275 331 330 301 263 250 254 149 167 189 159 163 164 169 172 171 162 165 173 183 189 185 186 207 196 206 209 201 197 213 199 200 210 214 182 140 126 120 156 200 82
253 259 277 227 289 234 350 325 325 236 262 270 162 164 152 162 167 172 171 168 172 169 168 169 178 180 180 184 209 202 191 195 187 188 170 159 147 140 141 148 160 172 125 107
258 262 254 283 274 51 354 289 349 342 246 243 167 193 158 161 163 171 171 169 169 155 158 164 168 168 178 173 171 168 184 168 153 149 150 152 150 146 138 128 123 133 119 93
242 254 251 253 76 78 5 270 295 329 299 229 229 204 164 160 161 169 171 168 153 155 160 163 162 167 169 165 169 174 158 153 153 148 147 147 138 124 127 146 157 129 103 95
280 250 256 263 184 170 212 203 206 252 319 231 256 214 153 157 159 165 167 157 159 159 157 158 163 157 163 160 159 154 155 155 144 137 137 137 130 139 140 150 136 117 105 74
245 278 270 247 257 269 276 212 203 238 236 262 220 153 152 155 156 160 155 156 166 160 156 159 160 164 167 162 161 152 144 143 132 144 153 137 134 119 119 123 116 111 109 155
225 263 288 302 261 293 248 160 124 212 233 217 160 143 149 152 156 150 156 164 166 160 157 154 166 175 171 159 153 152 143 138 149 161 146 134 120 122 151 174 179 145 160 172
318 312 295 283 289 254 216 162 100 218 248 195 34 125 157 160 155 155 161 170 162 162 162 158 167 173 164 158 154 155 151 151 149 156 155 167 181 126 148 170 176 152 176 193
311 2 333 290 297 323 272 208 192 221 186 190 158 156 164 161 156 159 164 168 164 169 167 166 168 165 170 162 165 162 149 150 158 168 170 173 184 202 218 132 191 220 209 211
310 338 327 292 295 312 298 253 260 190 207 197 180 166 164 155 156 162 166 168 172 174 172 167 169 175 174 169 170 162 161 171 179 185 187 183 193 197 181 185 149 172 213 220
294 304 312 292 291 299 308 248 310 221 206 201 192 175 166 159 161 165 168 167 176 179 174 171 177 179 177 173 174 167 170 193 195 215 226 179 193 221 220 222 185 141 151 184
293 282 278 284 289 288 319 275 244 268 200 198 184 182 171 164 165 166 166 164 177 180 173 171 175 180 178 175 183 178 177 193 197 199 199 175 194 222 234 209 191 152 103 195
279 287 289 289 300 306 302 190 180 228 193 195 190 184 170 167 163 163 163 169 171 176 171 172 175 183 176 180 184 180 182 195 207 217 205 188 204 221 231 162 176 244 246 219
273 268 278 285 292 304 304 313 313 183 186 186 193 180 163 162 160 163 167 172 176 177 175 176 176 179 167 188 185 178 196 208 205 228 211 199 199 206 230 213 212 236 223 206
281 274 278 285 289 297 301 306 296 237 184 181 182 173 160 161 164 167 171 172 174 181 178 180 176 179 175 193 174 188 189 194 222 220 238 213 218 212 209 206 230 241 214 213
298 288 286 288 294 302 297 306 299 321 179 174 172 170 167 166 166 169 170 174 174 176 177 180 178 182 175 193 185 189 200 182 188 203 213 221 239 230 232 205 213 218 235 242
296 288 282 291 289 302 302 302 305 330 177 168 171 167 163 165 168 171 173 176 177 176 175 175 178 183 180 191 184 190 193 195 177 188 202 202 214 219 245 243 249 256 281 330
292 288 276 275 298 293 295 260 181 325 319 165 173 169 164 166 167 168 174 170 173 175 175 178 176 178 182 193 186 189 191 202 197 186 200 206 217 234 226 229 234 227 239 270
296 278 258 271 286 295 227 166 149 242 291 174 173 165 163 164 166 172 173 172 171 176 177 178 173 177 181 191 184 192 197 180 196 197 190 195 207 217 242 248 263 246 261 272
284 246 243 259 292 252 163 170 194 252 277 203 175 170 165 166 167 168 169 175 175 178 175 174 168 178 182 176 174 202 172 169 178 186 197 208 223 232 242 242 244 248 255 267
248 228 238 261 259 294 201 196 206 250 249 182 173 167 164 168 174 176 169 175 177 176 175 168 179 178 175 164 180 186 172 168 178 168 159 160 188 224 232 242 251 257 267 269
210 229 233 241 230 199 207 204 197 221 256 172 169 167 171 172 174 173 175 173 175 167 175 176 178 178 172 178 183 183 183 181 173 170 189 202 205 204 224 238 256 266 272 274
223 202 222 221 192 173 140 163 186 211 234 172 179 180 173 173 174 165 170 170 166 167 170 169 176 177 173 183 186 187 188 191 188 196 211 242 271 286 266 266 270 252 274 281
203 218 231 245 190 179 177 188 194 190 215 173 187 176 163 153 150 154 168 162 159 166 169 169 172 171 181 191 201 191 154 180 180 130 138 137 199 204 224 339 293 299 281 283